Flag for U.S.A. Weather past 2 weeks in Dover, Delaware, U.S.A.

Now
62 °F

Overcast.


Feels Like: 62 °F
Forecast: 56 / 73 °F
Wind: 3 mph from Northwest

Location: Dover Air Force Base

Current Time: Oct 2, 2014 at 2:53:10 AM

Latest Report: Oct 2, 2014 at 1:58 AM


Visibility: 10 mi

Pressure: 30.06 "Hg

Humidity: 100%

Dew point: 62 °F

Location of DoverLocation

Historic Weather in Dover — Graph

°F

Dover temperature yesterday

Maximum temperature yesterday: 72 °F (at 2:58 PM)
Minimum temperature yesterday: 60 °F (at 10:58 PM)
Average temperature yesterday: 65 °F

Past Weeks' High & Low Weather Summary

 TemperatureHumidityPressure
High80 °F (Sep 27, 4:58 PM)100% (Sep 19, 4:58 AM)30.45 "Hg (Sep 19, 4:58 AM)
Low45 °F (Sep 23, 6:58 AM)39% (Sep 17, 3:58 PM)29.64 "Hg (Sep 21, 5:58 PM)
Average65 °F82%30.10 "Hg
* Reported Sep 17 1:58 AM — Oct 2 1:58 AM, Dover, Weather by CustomWeather, © 2014

Note: Actual official high and low records may vary slightly from our data, if they occured in-between our weather recording intervals... More about our weather records

Advertising

Dover weather history for previous 24 hours

 ConditionsComfort  
Time TempWeatherWind HumidityBarometerVisibility
1:58 AM
Oct 2
62 °FOvercast.3 mph100%30.06 "Hg10 mi
12:58 AM62 °FOvercast.6 mph100%30.06 "Hg10 mi
11:58 PM
Oct 1
61 °FOvercast.5 mph100%30.06 "Hg10 mi
10:58 PM60 °FClear.5 mph97%30.06 "Hg10 mi
9:58 PM63 °FClear.6 mph90%30.05 "Hg10 mi
8:58 PM63 °FClear.6 mph87%30.04 "Hg10 mi
7:58 PM64 °FPassing clouds.7 mph85%30.02 "Hg10 mi
6:58 PM67 °FOvercast.7 mph78%30.02 "Hg10 mi
5:58 PM70 °FOvercast.5 mph72%30.00 "Hg10 mi
4:58 PM71 °FOvercast.5 mph66%30.00 "Hg10 mi
3:58 PM71 °FBroken clouds.2 mph66%29.99 "Hg10 mi
2:58 PM72 °FOvercast.7 mph64%30.00 "Hg10 mi
1:58 PM70 °FMostly cloudy.7 mph69%30.00 "Hg10 mi
12:58 PM69 °FPartly sunny.12 mph69%30.02 "Hg4 mi
12:03 PM68 °FBroken clouds.8 mph73%30.01 "Hg10 mi
11:58 AM69 °FPartly sunny.9 mph75%30.02 "Hg10 mi
10:58 AM67 °FOvercast.8 mph78%30.03 "Hg10 mi
9:58 AM67 °FMostly cloudy.9 mph85%30.02 "Hg10 mi
8:58 AM64 °FMore clouds than sun.9 mph100%30.00 "Hg10 mi
7:58 AM63 °FLow clouds.10 mph100%29.98 "Hg10 mi
6:58 AM62 °FLow clouds.7 mph100%29.97 "Hg10 mi
5:58 AM62 °FLow clouds.6 mph100%29.96 "Hg10 mi
4:58 AM62 °FPassing clouds.7 mph100%29.94 "Hg10 mi
3:58 AM62 °FPassing clouds.8 mph100%29.93 "Hg10 mi
2:58 AM63 °FPassing clouds.8 mph100%29.94 "Hg10 mi
Weather by CustomWeather, © 2014

See weather overviewHow to use our weather pages